Lyndonville, VT

10:32 AM EDT on October 22, 2019 (GMT -0400)
Lyndonville

Weather History for KCDA - August, 2019

Change the Weather History Date:

Friday, August 23, 2019

  Actual Average (K1V4) Record (K1V4)
Temperature  
Mean Temperature 60 °F -  
Max Temperature 70 °F 74 °F 83 °F (2015)
Min Temperature 49 °F 52 °F 46 °F (2004)
Degree Days  
Heating Degree Days 6    
Growing Degree Days 10 (Base 50)    
Moisture  
Dew Point 50 °F    
Average Humidity 74    
Maximum Humidity 98    
Minimum Humidity 44    
Precipitation  
Precipitation 0.00 in - - ()
Sea Level Pressure  
Sea Level Pressure 30.02 in    
Wind  
Wind Speed 3 mph (West)    
Max Wind Speed 15 mph    
Max Gust Speed 22 mph    
Visibility 8 miles    
Events Fog , Rain    
Averages and records for this station are not official NWS values.
T = Trace of Precipitation, MM = Missing Value Source: NWS Daily Summary

Daily Weather History Graph

Daily Weather History Graph

Search for Another Location

Airport or City:

Astronomy

Aug. 23, 2019 Rise Set
Actual Time 5:59 AM EDT 7:40 PM EDT
Civil Twilight 5:28 AM EDT 8:11 PM EDT
Nautical Twilight 4:51 AM EDT 8:48 PM EDT
Astronomical Twilight 4:10 AM EDT 9:29 PM EDT
Moon 11:47 PM EDT (8/23) 1:52 PM EDT (8/23)
Length of Visible Light 14h 42m
Length of Day
13h 41m
Waning Gibbous, 50% of the Moon is Illuminated
Aug 23
Waning Gibbous
Aug 30
New
Sep 5
First Quarter
Sep 14
Full
Sep 21
Last Quarter

Hourly Weather History & Observations

Time (EDT) Temp. Dew Point Humidity Pressure Visibility Wind Dir Wind Speed Gust Speed Precip Events Conditions
12:17 AM 56.5 °F 54.9 °F 94% 29.93 in 10.0 mi NE 3.5 mph - N/A   Clear
12:35 AM 56.3 °F 54.5 °F 94% 29.93 in 10.0 mi Calm Calm - N/A   Clear
12:58 AM 55.4 °F 53.8 °F 94% 29.94 in 10.0 mi Calm Calm - N/A   Clear
1:16 AM 55.2 °F 54.0 °F 96% 29.94 in 10.0 mi Calm Calm - N/A   Clear
1:37 AM 54.0 °F 52.9 °F 96% 29.94 in 1.0 mi Calm Calm - N/A   Mist
1:56 AM 54.0 °F 53.2 °F 97% 29.94 in 0.5 mi Calm Calm - N/A Fog Fog
2:18 AM 54.5 °F 53.8 °F 97% 29.94 in 2.0 mi Calm Calm - N/A   Scattered Clouds
2:36 AM 52.9 °F 52.2 °F 97% 29.95 in 0.2 mi Calm Calm - N/A Fog Fog
2:57 AM 52.5 °F 51.8 °F 97% 29.94 in 0.5 mi Calm Calm - N/A Fog Fog
3:16 AM 52.0 °F 51.3 °F 97% 29.94 in 0.2 mi Calm Calm - N/A Fog Fog
3:56 AM 52.0 °F 51.3 °F 97% 29.94 in 0.2 mi Calm Calm - N/A Fog Fog
4:16 AM 51.8 °F 51.1 °F 97% 29.95 in 2.5 mi Calm Calm - N/A   Scattered Clouds
4:38 AM 50.7 °F 50.0 °F 97% 29.95 in 0.2 mi Calm Calm - N/A Fog Fog
4:56 AM 51.1 °F 50.4 °F 97% 29.95 in 0.2 mi Calm Calm - N/A Rain Light Rain
5:18 AM 50.2 °F 49.5 °F 97% 29.95 in 0.5 mi Calm Calm - N/A   Light Drizzle
5:36 AM 50.4 °F 49.8 °F 98% 29.96 in 0.2 mi Calm Calm - N/A Fog Fog
5:58 AM 50.9 °F 50.2 °F 97% 29.96 in 0.2 mi Calm Calm - N/A Fog Fog
6:16 AM 51.1 °F 50.4 °F 97% 29.97 in 0.8 mi Calm Calm - N/A   Mostly Cloudy
6:38 AM 49.8 °F 49.3 °F 98% 29.98 in 0.2 mi Calm Calm - N/A Fog Fog
6:56 AM 49.3 °F 48.7 °F 98% 29.99 in 0.2 mi Calm Calm - N/A Fog Fog
7:18 AM 51.3 °F 50.5 °F 97% 30.00 in 1.0 mi Calm Calm - N/A   Mostly Cloudy
7:36 AM 53.6 °F 52.9 °F 97% 30.00 in 10.0 mi NE 4.6 mph - N/A   Clear
7:58 AM 55.0 °F 54.3 °F 97% 30.00 in 10.0 mi Calm Calm - N/A   Clear
8:16 AM 55.8 °F 55.0 °F 97% 30.01 in 10.0 mi Calm Calm - N/A   Clear
8:39 AM 56.7 °F 55.9 °F 97% 30.00 in 10.0 mi Calm Calm - N/A   Clear
8:56 AM 57.2 °F 56.5 °F 97% 30.01 in 10.0 mi Calm Calm - N/A   Clear
9:19 AM 58.1 °F 57.2 °F 97% 30.01 in 10.0 mi Calm Calm - N/A   Scattered Clouds
9:36 AM 62.6 °F 60.8 °F 94% 30.01 in 10.0 mi WSW 6.9 mph - N/A   Scattered Clouds
10:00 AM 65.1 °F 53.1 °F 65% 30.01 in 10.0 mi West 9.2 mph 18.4 mph N/A   Clear
10:15 AM 64.9 °F 52.2 °F 63% 30.01 in 10.0 mi West 12.7 mph 19.6 mph N/A   Scattered Clouds
10:39 AM 67.1 °F 52.7 °F 60% 30.02 in 10.0 mi WSW 9.2 mph - N/A   Scattered Clouds
11:16 AM 67.5 °F 50.4 °F 54% 30.02 in 10.0 mi West 10.4 mph 19.6 mph N/A   Scattered Clouds
11:37 AM 67.5 °F 49.1 °F 52% 30.02 in 10.0 mi West 9.2 mph 17.3 mph N/A   Scattered Clouds
11:56 AM 68.0 °F 49.6 °F 52% 30.02 in 10.0 mi West 8.1 mph 18.4 mph N/A   Scattered Clouds
12:20 PM 68.5 °F 50.0 °F 52% 30.02 in 10.0 mi WSW 10.4 mph 19.6 mph N/A   Scattered Clouds
12:35 PM 68.9 °F 49.8 °F 51% 30.02 in 10.0 mi West 10.4 mph 17.3 mph N/A   Scattered Clouds
12:56 PM 68.9 °F 49.3 °F 50% 30.01 in 10.0 mi WSW 9.2 mph 17.3 mph N/A   Mostly Cloudy
1:17 PM 68.5 °F 47.7 °F 47% 30.02 in 10.0 mi WSW 12.7 mph 19.6 mph N/A   Mostly Cloudy
1:36 PM 70.2 °F 47.8 °F 45% 30.02 in 10.0 mi WSW 11.5 mph 18.4 mph N/A   Mostly Cloudy
1:56 PM 70.7 °F 48.0 °F 44% 30.02 in 10.0 mi WSW 11.5 mph 18.4 mph N/A   Mostly Cloudy
2:16 PM 69.8 °F 47.5 °F 45% 30.02 in 10.0 mi West 11.5 mph 17.3 mph N/A   Scattered Clouds
2:37 PM 69.8 °F 47.7 °F 45% 30.02 in 10.0 mi West 15.0 mph 21.9 mph N/A   Clear
2:56 PM 69.8 °F 47.5 °F 45% 30.02 in 10.0 mi West 11.5 mph - N/A   Scattered Clouds
3:16 PM 66.7 °F 46.8 °F 49% 30.04 in 10.0 mi West 11.5 mph - N/A   Scattered Clouds
3:36 PM 68.2 °F 47.1 °F 47% 30.03 in 10.0 mi WSW 10.4 mph 17.3 mph N/A   Scattered Clouds
3:57 PM 66.2 °F 47.8 °F 52% 30.04 in 10.0 mi West 8.1 mph 16.1 mph N/A   Mostly Cloudy
4:20 PM 68.4 °F 48.6 °F 49% 30.04 in 10.0 mi West 10.4 mph 20.7 mph N/A   Scattered Clouds
4:35 PM 67.5 °F 48.2 °F 50% 30.04 in 10.0 mi West 10.4 mph - N/A   Scattered Clouds
4:59 PM 66.7 °F 45.7 °F 47% 30.04 in 10.0 mi WSW 12.7 mph 17.3 mph N/A   Clear
5:15 PM 67.8 °F 47.7 °F 48% 30.04 in 10.0 mi WNW 5.8 mph - N/A   Scattered Clouds
5:40 PM 64.9 °F 49.8 °F 58% 30.05 in 10.0 mi West 5.8 mph - N/A   Mostly Cloudy
5:56 PM 64.6 °F 48.9 °F 57% 30.05 in 10.0 mi West 10.4 mph - N/A   Scattered Clouds
6:19 PM 66.2 °F 47.8 °F 52% 30.06 in 10.0 mi West 5.8 mph - N/A   Scattered Clouds
6:35 PM 63.9 °F 47.3 °F 55% 30.06 in 10.0 mi West 6.9 mph - N/A   Scattered Clouds
7:00 PM 63.1 °F 48.6 °F 59% 30.07 in 10.0 mi WSW 3.5 mph - N/A   Clear
7:16 PM 62.6 °F 48.4 °F 60% 30.07 in 10.0 mi West 3.5 mph - N/A   Scattered Clouds
7:39 PM 60.6 °F 48.2 °F 64% 30.07 in 10.0 mi West 5.8 mph - N/A   Scattered Clouds
7:55 PM 59.0 °F 47.7 °F 66% 30.08 in 10.0 mi West 4.6 mph - N/A   Clear
8:19 PM 57.7 °F 47.5 °F 69% 30.08 in 10.0 mi WSW 5.8 mph - N/A   Clear
8:36 PM 57.4 °F 47.5 °F 70% 30.09 in 10.0 mi Calm Calm - N/A   Clear
8:59 PM 57.4 °F 46.9 °F 68% 30.09 in 10.0 mi Calm Calm - N/A   Clear
9:15 PM 55.4 °F 47.5 °F 75% 30.09 in 10.0 mi West 4.6 mph - N/A   Clear
9:39 PM 55.4 °F 46.8 °F 73% 30.09 in 10.0 mi WSW 4.6 mph - N/A   Clear
9:56 PM 54.3 °F 47.3 °F 77% 30.09 in 10.0 mi WSW 4.6 mph - N/A   Clear
10:20 PM 54.0 °F 46.9 °F 77% 30.10 in 10.0 mi Calm Calm - N/A   Clear
10:35 PM 55.4 °F 45.9 °F 70% 30.10 in 10.0 mi NW 4.6 mph - N/A   Clear
10:59 PM 55.4 °F 45.5 °F 69% 30.10 in 10.0 mi West 3.5 mph - N/A   Clear
11:16 PM 54.9 °F 45.7 °F 71% 30.10 in 10.0 mi WNW 4.6 mph - N/A   Clear
11:40 PM 54.0 °F 45.7 °F 74% 30.11 in 10.0 mi West 4.6 mph - N/A   Clear
11:55 PM 53.8 °F 45.7 °F 74% 30.11 in 10.0 mi WNW 4.6 mph - N/A   Clear